Location: Hamayl? Da??
(36.7028°N, 30.1716°E)
Time: 15:42:58
(UTC+00:00)

Cosmos 1727 Rocket - Pass Details

Date: 04 August 2024
Orbit: 960 x 997 km, 82.9° (Epoch: 12 September)

Event Time Altitude Azimuth Distance (km) Brightness Sun altitude
Rises 18:27:53 0° 352° (N) 3,687 7.7 -15.8°
Reaches altitude 10° 18:30:25 10° 352° (N) 2,730 7.0 -16.2°
Maximum altitude 18:36:40 84° 266° (W) 978 4.0 -17.2°
Enters shadow 18:42:09 14° 178° (S) 2,436 5.7 -18.1°
